Regional Weather Roundup
Issued by NWS

Home | Current Version | Previous Version | Graphics & Text | Print | Product List | Glossary On
Versions: 1 2 3 4 5 6 7 8 9 10 11 12 13 14 15 16 17 18 19 20 21 22 23 24 25 26 27 28 29 30 31 32 33 34 35 36 37 38 39 40 41 42 43 44 45 46 47 48 49 50
000
ASUS43 KIND 211059
RWRIN

WEATHER ROUNDUP FOR INDIANA
NATIONAL WEATHER SERVICE INDIANAPOLIS IN
600 AM EST TUE NOV 21 2017

NOTE: "FAIR" INDICATES FEW OR NO CLOUDS BELOW 12,000 FEET WITH NO
SIGNIFICANT WEATHER AND/OR OBSTRUCTIONS TO VISIBILITY.

* - STATION DOES NOT REPORT WEATHER SUCH AS PRECIPITATION OR FOG.

+ - STATION NOT QUALITY CONTROLLED BY THE NATIONAL WEATHER SERVICE.
    USE DATA WITH CAUTION...ESPECIALLY DEWPOINT AND RELATIVE
    HUMIDITY OBSERVATIONS.

INZ001>003-010>013-019-020-211200-
NORTHWEST INDIANA

CITY           SKY/WX    TMP DP  RH WIND       PRES   REMARKS
GARY /AIRPORT/ PTCLDY    43  30  61 SW16G32   29.72R
KNOX *+        CLOUDY    41  30  65 SW17      29.75R
LA PORTE +     CLOUDY    40  30  68 SW14G24   29.74R WCI  32
MICHIGAN CITY+ CLOUDY    41  30  65 SW15G23   29.72S
MONTICELLO +   MOCLDY    40  28  62 SW15G23   29.78R WCI  32
RENSSELAER +   PTCLDY    41  27  56 SW16      29.77R

$$

LMZ046-743>745-211200-
SOUTHERN LAKE MICHIGAN

STATION/POSITION TIME  TEMP    WIND        PRES    WAVE
                       AIR SEA DIR/SP/G            HT
                 (UTC) (F)     (DEG/KT/KT) (MB)    (FT)
BURNS HARBOR     1040   44     210/ 23/ 31 1006.1S
MICHIGAN CITY    1030   44     190/ 20/ 24   N/A

$$

INZ004-005-014>016-021>024-211200-
NORTH CENTRAL INDIANA

CITY           SKY/WX    TMP DP  RH WIND       PRES   REMARKS
GOSHEN         CLOUDY    40  27  59 SW15      29.73S WCI  32
PERU/GRISSOM   MOCLDY    40  28  61 SW16      29.79R WCI  32
SOUTH BEND     MOCLDY    40  30  67 SW15      29.73R WCI  32
WARSAW +       CLOUDY    41  28  60 SW10      29.75S

$$

INZ006>009-017-018-025>027-211200-
NORTHEAST INDIANA

CITY           SKY/WX    TMP DP  RH WIND       PRES   REMARKS
AUBURN +       PTCLDY    41  27  56 SW10G22   29.76S
FORT WAYNE     CLOUDY    40  28  62 SW17G24   29.79S WCI  31
KENDALLVILLE + CLOUDY    40  28  62 SW14G24   29.74S WCI  32

$$

INZ028-029-035-036-043>045-051>053-211200-
WEST CENTRAL INDIANA

CITY           SKY/WX    TMP DP  RH WIND       PRES   REMARKS
CRAWFORDSVL +  PTCLDY    37  28  70 S16       29.82S WCI  27
GREENCASTLE +  CLEAR     39  25  56 SW8G16    29.86S WCI  34
LAFAYETTE      PTCLDY    39  28  64 SW8       29.81R WCI  33
TERRE HAUTE    PTCLDY    40  26  57 S13       29.87S WCI  32

$$

INZ030>032-037>040-046>048-054>057-064-065-211200-
CENTRAL INDIANA

CITY           SKY/WX    TMP DP  RH WIND       PRES   REMARKS
FRANKFORT +    CLOUDY    42  30  62 SW17G25   29.83R
INDIANAPOLIS   MOCLDY    41  25  53 SW13      29.86F
-EAGLE CREEK   MOCLDY    42  24  49 S13       29.85S
KOKOMO +       MOCLDY    41  27  57 SW18G24   29.81R
MT COMFORT *+  CLOUDY    36  30  80 S10       29.86F WCI  28
SHELBYVILLE    PTCLDY    39  25  57 S12       29.89S WCI  32

$$

INZ033-034-041-042-049-050-058-059-211200-
EAST CENTRAL INDIANA

CITY           SKY/WX    TMP DP  RH WIND       PRES   REMARKS
MUNCIE         MOCLDY    41  24  51 SW14G24   29.83S
RICHMOND +     CLOUDY    37  27  65 SW16G23   29.90S WCI  28

$$

INZ060-061-067>069-081>083-085>088-211200-
SOUTHWEST INDIANA

CITY           SKY/WX    TMP DP  RH WIND       PRES   REMARKS
EVANSVILLE     CLOUDY    40  29  64 S8        29.97S WCI  34
HUNTINGBURG +  CLOUDY    40  29  64 S13       29.97S WCI  32

$$

INZ062-063-066-070>080-084-089>092-211200-
SOUTH CENTRAL AND SOUTHEAST INDIANA

CITY           SKY/WX    TMP DP  RH WIND       PRES   REMARKS
BLOOMINGTON    PTCLDY    43  24  47 SW15      29.90S
MADISON *+     CLOUDY    37  27  65 S8        29.99S WCI  31
SEYMOUR +      CLOUDY    43  27  52 SW15      29.94S

$$





USA.gov is the U.S. government's official web portal to all federal, state and local government web resources and services.